Time,TemperatureF,DewpointF,PressureIn,WindDirection,WindDirectionDegrees,WindSpeedMPH,WindSpeedGustMPH,Humidity,HourlyPrecipIn,Conditions,Clouds,dailyrainin,SoftwareType,DateUTC
2013-02-19 00:00:00,40.6,23.3,30.22,South,180,7.1,8.7,50,0.00,,,0.00,WUHU216HW,2013-02-19 05:00:00,
2013-02-19 00:05:00,40.6,23.3,30.21,SSE,158,0.0,8.7,50,0.00,,,0.00,WUHU216HW,2013-02-19 05:05:00,
2013-02-19 00:10:00,40.6,23.3,30.22,SSE,158,0.0,7.1,50,0.00,,,0.00,WUHU216HW,2013-02-19 05:10:00,
2013-02-19 00:15:00,40.6,23.3,30.22,South,180,0.0,5.1,50,0.00,,,0.00,WUHU216HW,2013-02-19 05:15:00,
2013-02-19 00:20:00,40.6,23.3,30.22,South,180,6.0,6.0,50,0.00,,,0.00,WUHU216HW,2013-02-19 05:20:00,
2013-02-19 00:25:00,40.6,23.8,30.22,SE,135,2.9,6.0,51,0.00,,,0.00,WUHU216HW,2013-02-19 05:25:00,
2013-02-19 00:30:00,40.6,23.8,30.23,SE,135,9.6,9.6,51,0.00,,,0.00,WUHU216HW,2013-02-19 05:30:00,
2013-02-19 00:35:00,40.6,23.8,30.23,South,180,8.7,9.6,51,0.00,,,0.00,WUHU216HW,2013-02-19 05:35:00,
2013-02-19 00:40:00,40.6,23.8,30.22,SSE,158,5.1,8.7,51,0.00,,,0.00,WUHU216HW,2013-02-19 05:40:00,
2013-02-19 00:45:00,40.6,23.8,30.22,SE,135,3.5,8.7,51,0.00,,,0.00,WUHU216HW,2013-02-19 05:45:00,
2013-02-19 00:50:00,40.6,23.8,30.22,SSE,158,0.0,8.7,51,0.00,,,0.00,WUHU216HW,2013-02-19 05:50:00,
2013-02-19 00:55:00,40.6,23.8,30.21,SSE,158,0.0,12.9,51,0.00,,,0.00,WUHU216HW,2013-02-19 05:55:00,
2013-02-19 01:00:00,40.6,23.8,30.20,South,180,8.2,12.9,51,0.00,,,0.00,WUHU216HW,2013-02-19 06:00:00,
2013-02-19 01:05:00,40.4,23.6,30.20,South,180,0.0,8.2,51,0.00,,,0.00,WUHU216HW,2013-02-19 06:05:00,
2013-02-19 01:10:00,40.4,23.6,30.19,ESE,113,20.3,20.3,51,0.00,,,0.00,WUHU216HW,2013-02-19 06:10:00,
2013-02-19 01:15:00,40.6,23.8,30.19,SSE,158,0.0,20.3,51,0.00,,,0.00,WUHU216HW,2013-02-19 06:15:00,
2013-02-19 01:20:00,40.6,23.8,30.18,SSE,158,7.6,7.6,51,0.00,,,0.00,WUHU216HW,2013-02-19 06:20:00,
2013-02-19 01:25:00,40.6,23.8,30.18,ESE,113,13.1,13.1,51,0.00,,,0.00,WUHU216HW,2013-02-19 06:25:00,
2013-02-19 01:30:00,40.4,23.6,30.18,SE,135,0.0,13.1,51,0.00,,,0.00,WUHU216HW,2013-02-19 06:30:00,
2013-02-19 01:35:00,40.4,23.6,30.18,ESE,113,3.5,7.3,51,0.00,,,0.00,WUHU216HW,2013-02-19 06:35:00,
2013-02-19 01:40:00,40.4,23.6,30.16,SSE,158,0.0,15.8,51,0.00,,,0.00,WUHU216HW,2013-02-19 06:40:00,
2013-02-19 01:45:00,40.4,23.6,30.16,South,180,3.3,15.8,51,0.00,,,0.00,WUHU216HW,2013-02-19 06:45:00,
2013-02-19 01:51:00,40.4,23.6,30.15,ESE,113,4.6,17.8,51,0.00,,,0.00,WUHU216HW,2013-02-19 06:51:00,
2013-02-19 01:56:00,40.2,23.5,30.16,South,180,7.1,17.8,51,0.00,,,0.00,WUHU216HW,2013-02-19 06:56:00,
2013-02-19 02:01:00,40.2,23.5,30.15,SSE,158,3.3,7.1,51,0.00,,,0.00,WUHU216HW,2013-02-19 07:01:00,
2013-02-19 02:06:00,40.2,23.5,30.15,South,180,0.0,8.9,51,0.00,,,0.00,WUHU216HW,2013-02-19 07:06:00,
2013-02-19 02:11:00,40.1,23.3,30.16,SE,135,0.6,8.9,51,0.00,,,0.00,WUHU216HW,2013-02-19 07:11:00,
2013-02-19 02:16:00,40.1,23.3,30.16,SSE,158,2.2,2.2,51,0.00,,,0.00,WUHU216HW,2013-02-19 07:16:00,
2013-02-19 02:21:00,39.9,23.1,30.16,SSW,203,6.0,6.0,51,0.00,,,0.00,WUHU216HW,2013-02-19 07:21:00,
2013-02-19 02:26:00,39.9,23.1,30.16,SE,135,0.0,6.0,51,0.00,,,0.00,WUHU216HW,2013-02-19 07:26:00,
2013-02-19 02:31:00,39.9,23.1,30.17,South,180,0.0,6.0,51,0.00,,,0.00,WUHU216HW,2013-02-19 07:31:00,
2013-02-19 02:36:00,39.9,23.1,30.15,SSE,158,0.0,8.7,51,0.00,,,0.00,WUHU216HW,2013-02-19 07:36:00,
2013-02-19 02:41:00,39.7,23.0,30.16,SE,135,5.1,8.7,51,0.00,,,0.00,WUHU216HW,2013-02-19 07:41:00,
2013-02-19 02:46:00,39.7,23.0,30.15,SSE,158,0.0,5.1,51,0.00,,,0.00,WUHU216HW,2013-02-19 07:46:00,
2013-02-19 02:51:00,39.5,22.8,30.15,South,180,5.3,5.3,51,0.00,,,0.00,WUHU216HW,2013-02-19 07:51:00,
2013-02-19 02:56:00,39.5,22.8,30.15,SSE,158,0.0,5.3,51,0.00,,,0.00,WUHU216HW,2013-02-19 07:56:00,
2013-02-19 03:01:00,39.5,22.8,30.16,SE,135,0.0,5.3,51,0.00,,,0.00,WUHU216HW,2013-02-19 08:01:00,
2013-02-19 03:06:00,39.5,22.8,30.15,SSE,158,0.0,14.5,51,0.00,,,0.00,WUHU216HW,2013-02-19 08:06:00,
2013-02-19 03:11:00,39.5,22.8,30.15,SSE,158,7.3,14.5,51,0.00,,,0.00,WUHU216HW,2013-02-19 08:11:00,
2013-02-19 03:16:00,39.3,22.6,30.15,SE,135,0.0,8.5,51,0.00,,,0.00,WUHU216HW,2013-02-19 08:16:00,
2013-02-19 03:21:00,39.3,22.6,30.15,SSE,158,6.4,8.5,51,0.00,,,0.00,WUHU216HW,2013-02-19 08:21:00,
2013-02-19 03:26:00,39.3,22.6,30.15,SSE,158,2.6,6.4,51,0.00,,,0.00,WUHU216HW,2013-02-19 08:26:00,
2013-02-19 03:31:00,39.3,22.6,30.16,SSW,203,0.0,6.4,51,0.00,,,0.00,WUHU216HW,2013-02-19 08:31:00,
2013-02-19 03:36:00,39.3,22.6,30.16,SSE,158,0.0,3.8,51,0.00,,,0.00,WUHU216HW,2013-02-19 08:36:00,
2013-02-19 03:41:00,39.3,22.6,30.17,SSE,158,5.8,5.8,51,0.00,,,0.00,WUHU216HW,2013-02-19 08:41:00,
2013-02-19 03:46:00,39.3,23.1,30.17,ESE,113,7.8,7.8,52,0.00,,,0.00,WUHU216HW,2013-02-19 08:46:00,
2013-02-19 03:51:00,39.3,23.1,30.16,SE,135,0.0,7.8,52,0.00,,,0.00,WUHU216HW,2013-02-19 08:51:00,
2013-02-19 03:56:00,39.3,23.1,30.16,SSE,158,0.0,7.3,52,0.00,,,0.00,WUHU216HW,2013-02-19 08:56:00,
2013-02-19 04:01:00,39.3,23.1,30.16,SE,135,12.3,12.3,52,0.00,,,0.00,WUHU216HW,2013-02-19 09:01:00,
2013-02-19 04:06:00,39.3,23.1,30.16,SSE,158,0.0,12.3,52,0.00,,,0.00,WUHU216HW,2013-02-19 09:06:00,
2013-02-19 04:11:00,39.3,23.1,30.15,SSE,158,0.0,8.7,52,0.00,,,0.00,WUHU216HW,2013-02-19 09:11:00,
2013-02-19 04:16:00,39.3,23.1,30.14,South,180,0.0,8.7,52,0.00,,,0.00,WUHU216HW,2013-02-19 09:16:00,
2013-02-19 04:21:00,39.3,23.5,30.14,SSE,158,0.0,3.8,53,0.00,,,0.00,WUHU216HW,2013-02-19 09:21:00,
2013-02-19 04:26:00,39.5,23.7,30.14,South,180,0.0,3.8,53,0.00,,,0.00,WUHU216HW,2013-02-19 09:26:00,
2013-02-19 04:31:00,39.5,23.7,30.15,SSE,158,0.0,0.0,53,0.00,,,0.00,WUHU216HW,2013-02-19 09:31:00,
2013-02-19 04:36:00,39.5,23.7,30.15,South,180,0.0,6.4,53,0.00,,,0.00,WUHU216HW,2013-02-19 09:36:00,
2013-02-19 04:41:00,39.5,24.1,30.15,ESE,113,4.2,6.4,54,0.00,,,0.00,WUHU216HW,2013-02-19 09:41:00,
2013-02-19 04:46:00,39.5,24.1,30.15,SSE,158,2.0,4.2,54,0.00,,,0.00,WUHU216HW,2013-02-19 09:46:00,
2013-02-19 04:51:00,39.3,23.9,30.15,SSE,158,0.0,2.0,54,0.00,,,0.00,WUHU216HW,2013-02-19 09:51:00,
2013-02-19 04:56:00,39.5,24.6,30.15,SSE,158,8.7,8.7,55,0.00,,,0.00,WUHU216HW,2013-02-19 09:56:00,
2013-02-19 05:01:00,39.5,24.6,30.16,SE,135,0.0,8.7,55,0.00,,,0.00,WUHU216HW,2013-02-19 10:01:00,
2013-02-19 05:06:00,39.3,24.4,30.16,SSE,158,0.0,0.0,55,0.00,,,0.00,WUHU216HW,2013-02-19 10:06:00,
2013-02-19 05:11:00,39.5,25.0,30.16,SSE,158,0.0,0.0,56,0.00,,,0.00,WUHU216HW,2013-02-19 10:11:00,
2013-02-19 05:16:00,39.3,24.8,30.16,SSE,158,0.0,0.0,56,0.00,,,0.00,WUHU216HW,2013-02-19 10:16:00,
2013-02-19 05:21:00,39.3,24.8,30.16,SE,135,0.0,0.0,56,0.00,,,0.00,WUHU216HW,2013-02-19 10:21:00,
2013-02-19 05:26:00,39.5,25.0,30.17,SSE,158,0.0,0.0,56,0.00,,,0.00,WUHU216HW,2013-02-19 10:26:00,
2013-02-19 05:31:00,39.5,25.4,30.16,SE,135,0.0,0.0,57,0.00,,,0.00,WUHU216HW,2013-02-19 10:31:00,
2013-02-19 05:36:00,39.5,25.4,30.16,East,90,0.0,0.0,57,0.00,,,0.00,WUHU216HW,2013-02-19 10:36:00,
2013-02-19 05:41:00,39.5,25.4,30.16,ESE,113,0.0,0.0,57,0.00,,,0.00,WUHU216HW,2013-02-19 10:41:00,
2013-02-19 05:46:00,39.5,26.3,30.17,SSE,158,0.0,12.0,59,0.00,,,0.00,WUHU216HW,2013-02-19 10:46:00,
2013-02-19 05:51:00,39.3,26.9,30.17,SSE,158,0.0,12.0,61,0.00,,,0.00,WUHU216HW,2013-02-19 10:51:00,
2013-02-19 05:56:00,39.0,27.3,30.16,SE,135,0.0,2.6,63,0.00,,,0.00,WUHU216HW,2013-02-19 10:56:00,
2013-02-19 06:01:00,39.0,27.6,30.15,SSE,158,0.0,0.0,63,0.00,,,0.00,WUHU216HW,2013-02-19 11:01:00,
2013-02-19 06:06:00,38.8,27.9,30.15,SE,135,0.0,0.0,65,0.00,,,0.00,WUHU216HW,2013-02-19 11:06:00,
2013-02-19 06:11:00,38.4,28.0,30.14,SE,135,0.0,4.2,66,0.00,,,0.00,WUHU216HW,2013-02-19 11:11:00,
2013-02-19 06:16:00,38.3,27.8,30.14,SSE,158,0.0,4.2,66,0.00,,,0.00,WUHU216HW,2013-02-19 11:16:00,
2013-02-19 06:21:00,38.1,27.7,30.15,SSE,158,0.0,0.0,66,0.00,,,0.00,WUHU216HW,2013-02-19 11:21:00,
2013-02-19 06:26:00,38.1,27.7,30.15,SSE,158,0.0,0.0,66,0.00,,,0.00,WUHU216HW,2013-02-19 11:26:00,
2013-02-19 06:31:00,37.9,27.9,30.14,SE,135,0.0,0.0,67,0.00,,,0.00,WUHU216HW,2013-02-19 11:31:00,
2013-02-19 06:36:00,37.9,28.3,30.15,SSE,158,0.0,0.0,68,0.00,,,0.00,WUHU216HW,2013-02-19 11:36:00,
2013-02-19 06:41:00,37.7,28.5,30.14,SE,135,0.0,0.0,69,0.02,,,0.02,WUHU216HW,2013-02-19 11:41:00,
2013-02-19 06:46:00,37.5,28.3,30.14,ESE,113,0.0,0.0,69,0.02,,,0.02,WUHU216HW,2013-02-19 11:46:00,
2013-02-19 06:51:00,37.5,28.7,30.13,SSE,158,1.7,1.7,70,0.02,,,0.02,WUHU216HW,2013-02-19 11:51:00,
2013-02-19 06:56:00,37.4,28.9,30.13,SSE,158,0.0,1.7,71,0.02,,,0.02,WUHU216HW,2013-02-19 11:56:00,
2013-02-19 07:01:00,37.4,28.9,30.12,SSE,158,0.0,0.8,71,0.02,,,0.02,WUHU216HW,2013-02-19 12:01:00,
2013-02-19 07:06:00,37.2,29.0,30.13,SE,135,0.0,3.8,72,0.02,,,0.02,WUHU216HW,2013-02-19 12:06:00,
2013-02-19 07:11:00,37.2,29.0,30.12,SE,135,0.0,3.8,72,0.02,,,0.02,WUHU216HW,2013-02-19 12:11:00,
2013-02-19 07:16:00,37.2,29.3,30.12,SE,135,0.0,2.0,73,0.02,,,0.02,WUHU216HW,2013-02-19 12:16:00,
2013-02-19 07:21:00,37.2,29.3,30.12,SE,135,0.0,6.0,73,0.02,,,0.02,WUHU216HW,2013-02-19 12:21:00,
2013-02-19 07:26:00,37.2,29.6,30.12,South,180,0.0,6.0,74,0.02,,,0.02,WUHU216HW,2013-02-19 12:26:00,
2013-02-19 07:31:00,37.2,29.6,30.12,SE,135,0.0,0.0,74,0.02,,,0.02,WUHU216HW,2013-02-19 12:31:00,
2013-02-19 07:36:00,37.2,30.0,30.12,South,180,0.0,0.0,75,0.00,,,0.02,WUHU216HW,2013-02-19 12:36:00,
2013-02-19 07:41:00,37.2,30.0,30.11,SE,135,0.0,0.0,75,0.00,,,0.02,WUHU216HW,2013-02-19 12:41:00,
2013-02-19 07:46:00,37.2,30.0,30.11,SSE,158,0.0,0.0,75,0.00,,,0.02,WUHU216HW,2013-02-19 12:46:00,
2013-02-19 07:51:00,37.4,30.2,30.11,SSE,158,0.0,0.0,75,0.00,,,0.02,WUHU216HW,2013-02-19 12:51:00,
2013-02-19 07:56:00,37.4,30.5,30.10,SE,135,0.0,0.0,76,0.00,,,0.02,WUHU216HW,2013-02-19 12:56:00,
2013-02-19 08:01:00,37.5,30.6,30.11,SSE,158,0.0,0.0,76,0.00,,,0.02,WUHU216HW,2013-02-19 13:01:00,
2013-02-19 08:06:00,37.5,30.6,30.10,ESE,113,1.1,1.1,76,0.00,,,0.02,WUHU216HW,2013-02-19 13:06:00,
2013-02-19 08:11:00,37.5,31.0,30.10,SSE,158,0.0,3.8,77,0.00,,,0.02,WUHU216HW,2013-02-19 13:11:00,
2013-02-19 08:16:00,37.5,31.0,30.09,SSE,158,0.0,3.8,77,0.00,,,0.02,WUHU216HW,2013-02-19 13:16:00,
2013-02-19 08:21:00,37.5,31.0,30.10,SSE,158,0.0,4.6,77,0.00,,,0.02,WUHU216HW,2013-02-19 13:21:00,
2013-02-19 08:26:00,37.7,31.1,30.09,SSE,158,5.8,5.8,77,0.00,,,0.02,WUHU216HW,2013-02-19 13:26:00,
2013-02-19 08:31:00,37.7,31.1,30.09,SSE,158,0.0,5.8,77,0.00,,,0.02,WUHU216HW,2013-02-19 13:31:00,
2013-02-19 08:37:00,37.7,31.5,30.09,SSE,158,0.0,6.2,78,0.00,,,0.02,WUHU216HW,2013-02-19 13:37:00,
2013-02-19 08:42:00,37.9,31.6,30.08,SSE,158,1.1,6.2,78,0.00,,,0.02,WUHU216HW,2013-02-19 13:42:00,
2013-02-19 08:47:00,37.9,31.6,30.08,SE,135,6.7,6.7,78,0.00,,,0.02,WUHU216HW,2013-02-19 13:47:00,
2013-02-19 08:52:00,37.9,31.6,30.08,ESE,113,10.0,10.0,78,0.00,,,0.02,WUHU216HW,2013-02-19 13:52:00,
2013-02-19 08:57:00,37.9,31.6,30.09,South,180,0.0,10.0,78,0.00,,,0.02,WUHU216HW,2013-02-19 13:57:00,
2013-02-19 09:02:00,38.1,31.8,30.09,SSE,158,0.0,10.0,78,0.00,,,0.02,WUHU216HW,2013-02-19 14:02:00,
2013-02-19 09:07:00,38.1,32.1,30.08,SSW,203,0.0,4.9,79,0.00,,,0.02,WUHU216HW,2013-02-19 14:07:00,
2013-02-19 09:12:00,38.3,32.0,30.08,SSE,158,0.0,7.6,78,0.00,,,0.02,WUHU216HW,2013-02-19 14:12:00,
2013-02-19 09:17:00,38.4,32.5,30.09,SE,135,6.7,7.6,79,0.00,,,0.02,WUHU216HW,2013-02-19 14:17:00,
2013-02-19 09:22:00,38.8,32.9,30.08,SE,135,0.0,6.7,79,0.00,,,0.02,WUHU216HW,2013-02-19 14:22:00,
2013-02-19 09:27:00,38.8,32.9,30.08,ESE,113,0.0,6.7,79,0.00,,,0.02,WUHU216HW,2013-02-19 14:27:00,
2013-02-19 09:32:00,39.0,33.0,30.08,SE,135,0.0,0.0,79,0.00,,,0.02,WUHU216HW,2013-02-19 14:32:00,
2013-02-19 09:37:00,39.2,32.9,30.08,SE,135,0.0,0.0,78,0.00,,,0.02,WUHU216HW,2013-02-19 14:37:00,
2013-02-19 09:42:00,39.3,33.0,30.09,SE,135,0.0,0.0,78,0.00,,,0.02,WUHU216HW,2013-02-19 14:42:00,
2013-02-19 09:47:00,39.5,33.2,30.09,SE,135,0.0,0.0,78,0.00,,,0.02,WUHU216HW,2013-02-19 14:47:00,
2013-02-19 09:52:00,39.3,33.0,30.09,South,180,0.0,0.0,78,0.00,,,0.02,WUHU216HW,2013-02-19 14:52:00,
2013-02-19 09:57:00,39.5,33.2,30.08,SE,135,0.0,0.0,78,0.00,,,0.02,WUHU216HW,2013-02-19 14:57:00,
2013-02-19 10:02:00,39.7,33.4,30.09,SSE,158,0.0,0.0,78,0.00,,,0.02,WUHU216HW,2013-02-19 15:02:00,
2013-02-19 10:07:00,39.9,33.5,30.08,South,180,0.8,0.8,78,0.00,,,0.02,WUHU216HW,2013-02-19 15:07:00,
2013-02-19 10:12:00,40.4,34.4,30.08,SE,135,0.0,1.7,79,0.00,,,0.02,WUHU216HW,2013-02-19 15:12:00,
2013-02-19 10:17:00,40.8,34.7,30.08,ESE,113,0.0,3.1,79,0.00,,,0.02,WUHU216HW,2013-02-19 15:17:00,
2013-02-19 10:22:00,41.1,35.0,30.09,SE,135,0.0,3.1,79,0.00,,,0.02,WUHU216HW,2013-02-19 15:22:00,
2013-02-19 10:27:00,41.7,35.6,30.08,SE,135,0.0,0.0,79,0.00,,,0.02,WUHU216HW,2013-02-19 15:27:00,
2013-02-19 10:32:00,42.0,35.6,30.09,SSE,158,0.0,0.0,78,0.00,,,0.02,WUHU216HW,2013-02-19 15:32:00,
2013-02-19 10:37:00,42.6,36.2,30.08,SE,135,0.0,0.0,78,0.00,,,0.02,WUHU216HW,2013-02-19 15:37:00,
2013-02-19 10:42:00,42.9,36.5,30.08,SE,135,0.0,0.0,78,0.00,,,0.02,WUHU216HW,2013-02-19 15:42:00,
2013-02-19 10:47:00,43.5,37.0,30.08,SE,135,0.0,0.0,78,0.00,,,0.02,WUHU216HW,2013-02-19 15:47:00,
2013-02-19 10:52:00,43.7,36.9,30.08,SE,135,0.0,2.4,77,0.00,,,0.02,WUHU216HW,2013-02-19 15:52:00,
2013-02-19 10:57:00,44.4,37.6,30.08,SSE,158,0.0,2.4,77,0.00,,,0.02,WUHU216HW,2013-02-19 15:57:00,
2013-02-19 11:02:00,44.9,38.1,30.08,SSE,158,0.0,0.0,77,0.00,,,0.02,WUHU216HW,2013-02-19 16:02:00,
2013-02-19 11:07:00,45.3,38.5,30.08,SSE,158,0.0,3.3,77,0.00,,,0.02,WUHU216HW,2013-02-19 16:07:00,
2013-02-19 11:12:00,46.2,39.0,30.08,SSE,158,0.0,3.3,76,0.00,,,0.02,WUHU216HW,2013-02-19 16:12:00,
2013-02-19 11:17:00,46.9,39.7,30.08,SSE,158,0.0,0.0,76,0.00,,,0.02,WUHU216HW,2013-02-19 16:17:00,
2013-02-19 11:22:00,47.4,40.2,30.07,SSE,158,0.0,0.0,76,0.00,,,0.02,WUHU216HW,2013-02-19 16:22:00,
2013-02-19 11:27:00,48.3,40.7,30.07,SSE,158,0.0,0.0,75,0.00,,,0.02,WUHU216HW,2013-02-19 16:27:00,
2013-02-19 11:32:00,49.1,40.7,30.07,SSE,158,0.0,0.0,73,0.00,,,0.02,WUHU216HW,2013-02-19 16:32:00,
2013-02-19 11:37:00,49.4,40.7,30.07,SSE,158,0.0,0.0,72,0.00,,,0.02,WUHU216HW,2013-02-19 16:37:00,
2013-02-19 11:42:00,50.1,41.5,30.06,SSE,158,0.0,0.0,72,0.00,,,0.02,WUHU216HW,2013-02-19 16:42:00,
2013-02-19 11:47:00,50.7,42.0,30.06,SSE,158,0.0,0.0,72,0.00,,,0.02,WUHU216HW,2013-02-19 16:47:00,
2013-02-19 11:52:00,51.6,42.6,30.05,West,270,0.0,0.0,71,0.00,,,0.02,WUHU216HW,2013-02-19 16:52:00,
2013-02-19 11:57:00,52.3,42.6,30.06,SW,225,0.0,0.8,69,0.00,,,0.02,WUHU216HW,2013-02-19 16:57:00,
2013-02-19 12:02:00,52.7,42.4,30.05,SW,225,0.0,0.8,68,0.00,,,0.02,WUHU216HW,2013-02-19 17:02:00,
2013-02-19 12:07:00,53.0,42.3,30.05,SW,225,0.0,0.0,67,0.00,,,0.02,WUHU216HW,2013-02-19 17:07:00,
2013-02-19 12:12:00,53.4,41.9,30.05,North,0,0.0,0.0,65,0.00,,,0.02,WUHU216HW,2013-02-19 17:12:00,
2013-02-19 12:17:00,53.2,41.3,30.05,North,0,0.0,0.0,64,0.00,,,0.02,WUHU216HW,2013-02-19 17:17:00,
2013-02-19 12:22:00,52.8,40.9,30.05,North,0,0.0,0.0,64,0.00,,,0.02,WUHU216HW,2013-02-19 17:22:00,
2013-02-19 12:27:00,53.2,41.3,30.04,NW,315,0.0,0.0,64,0.00,,,0.02,WUHU216HW,2013-02-19 17:27:00,
2013-02-19 12:32:00,53.6,41.2,30.04,West,270,0.0,0.0,63,0.00,,,0.02,WUHU216HW,2013-02-19 17:32:00,
2013-02-19 12:37:00,53.7,40.6,30.04,NNW,338,0.0,6.2,61,0.00,,,0.02,WUHU216HW,2013-02-19 17:37:00,
2013-02-19 12:42:00,53.9,41.2,30.04,NW,315,0.0,6.2,62,0.00,,,0.02,WUHU216HW,2013-02-19 17:42:00,
2013-02-19 12:47:00,53.4,40.7,30.03,West,270,2.9,2.9,62,0.00,,,0.02,WUHU216HW,2013-02-19 17:47:00,
2013-02-19 12:52:00,52.8,40.1,30.04,North,0,0.0,2.9,62,0.00,,,0.02,WUHU216HW,2013-02-19 17:52:00,
2013-02-19 12:57:00,52.3,40.0,30.03,NE,45,0.0,0.0,63,0.00,,,0.02,WUHU216HW,2013-02-19 17:57:00,
2013-02-19 13:02:00,51.9,39.7,30.03,NNW,338,0.0,0.0,63,0.00,,,0.02,WUHU216HW,2013-02-19 18:02:00,
2013-02-19 13:07:00,51.6,39.7,30.03,NNW,338,0.0,0.0,64,0.00,,,0.02,WUHU216HW,2013-02-19 18:07:00,
2013-02-19 13:12:00,51.6,39.7,30.03,West,270,0.0,2.4,64,0.00,,,0.02,WUHU216HW,2013-02-19 18:12:00,
2013-02-19 13:17:00,51.4,39.2,30.03,NNW,338,0.0,2.9,63,0.00,,,0.02,WUHU216HW,2013-02-19 18:17:00,
2013-02-19 13:22:00,51.4,39.2,30.03,NNW,338,0.0,2.9,63,0.00,,,0.02,WUHU216HW,2013-02-19 18:22:00,
2013-02-19 13:27:00,51.4,39.2,30.02,NW,315,0.0,0.0,63,0.00,,,0.02,WUHU216HW,2013-02-19 18:27:00,
2013-02-19 13:32:00,51.0,38.8,30.02,WSW,248,0.0,0.0,63,0.00,,,0.02,WUHU216HW,2013-02-19 18:32:00,
2013-02-19 13:37:00,51.2,39.0,30.02,WNW,293,0.0,0.0,63,0.00,,,0.02,WUHU216HW,2013-02-19 18:37:00,
2013-02-19 13:42:00,51.6,39.3,30.02,NNE,23,0.0,0.0,63,0.00,,,0.02,WUHU216HW,2013-02-19 18:42:00,
2013-02-19 13:47:00,51.8,39.5,30.01,NE,45,0.0,0.0,63,0.00,,,0.02,WUHU216HW,2013-02-19 18:47:00,
2013-02-19 13:52:00,51.9,39.7,30.02,NE,45,0.0,0.0,63,0.00,,,0.02,WUHU216HW,2013-02-19 18:52:00,
2013-02-19 13:57:00,51.9,39.2,30.01,WNW,293,0.0,0.0,62,0.00,,,0.02,WUHU216HW,2013-02-19 18:57:00,
2013-02-19 14:02:00,51.8,39.1,30.02,WNW,293,0.0,0.0,62,0.00,,,0.02,WUHU216HW,2013-02-19 19:02:00,
2013-02-19 14:07:00,51.6,38.9,30.02,NW,315,0.0,0.0,62,0.00,,,0.02,WUHU216HW,2013-02-19 19:07:00,
2013-02-19 14:12:00,51.6,38.5,30.02,NNW,338,0.0,0.0,61,0.00,,,0.02,WUHU216HW,2013-02-19 19:12:00,
2013-02-19 14:17:00,51.6,38.5,30.01,NNW,338,0.0,0.0,61,0.00,,,0.02,WUHU216HW,2013-02-19 19:17:00,
2013-02-19 14:22:00,51.4,37.9,30.01,NW,315,0.0,0.0,60,0.00,,,0.02,WUHU216HW,2013-02-19 19:22:00,
2013-02-19 14:27:00,50.9,37.0,30.01,NE,45,0.0,3.5,59,0.00,,,0.02,WUHU216HW,2013-02-19 19:27:00,
2013-02-19 14:32:00,50.7,36.8,30.01,NNE,23,0.0,3.5,59,0.00,,,0.02,WUHU216HW,2013-02-19 19:32:00,
2013-02-19 14:37:00,50.7,36.8,30.01,NE,45,0.0,0.0,59,0.00,,,0.02,WUHU216HW,2013-02-19 19:37:00,
2013-02-19 14:42:00,50.7,36.4,30.01,North,0,1.5,1.5,58,0.00,,,0.02,WUHU216HW,2013-02-19 19:42:00,
2013-02-19 14:47:00,50.7,35.9,30.01,North,0,0.0,1.5,57,0.00,,,0.02,WUHU216HW,2013-02-19 19:47:00,
2013-02-19 14:52:00,50.7,35.9,30.01,NW,315,0.0,0.0,56,0.00,,,0.02,WUHU216HW,2013-02-19 19:52:00,
2013-02-19 14:57:00,50.5,34.9,30.01,NNW,338,0.0,0.0,55,0.00,,,0.02,WUHU216HW,2013-02-19 19:57:00,
2013-02-19 15:02:00,50.5,34.9,30.01,West,270,0.0,0.0,55,0.00,,,0.02,WUHU216HW,2013-02-19 20:02:00,
2013-02-19 15:07:00,50.3,34.3,30.01,WNW,293,0.0,3.3,54,0.00,,,0.02,WUHU216HW,2013-02-19 20:07:00,
2013-02-19 15:12:00,50.1,33.6,30.01,NNW,338,1.1,3.3,53,0.00,,,0.02,WUHU216HW,2013-02-19 20:12:00,
2013-02-19 15:17:00,49.8,33.3,30.01,NNW,338,0.0,8.7,53,0.00,,,0.02,WUHU216HW,2013-02-19 20:17:00,
2013-02-19 15:22:00,49.4,32.9,30.01,WNW,293,0.0,8.7,53,0.00,,,0.02,WUHU216HW,2013-02-19 20:22:00,
2013-02-19 15:27:00,49.1,32.1,30.01,NNW,338,2.4,6.2,52,0.00,,,0.02,WUHU216HW,2013-02-19 20:27:00,
2013-02-19 15:32:00,49.1,32.1,30.01,NW,315,0.0,6.2,52,0.00,,,0.02,WUHU216HW,2013-02-19 20:32:00,
2013-02-19 15:37:00,49.1,32.1,30.01,NNW,338,0.0,4.9,52,0.00,,,0.02,WUHU216HW,2013-02-19 20:37:00,
2013-02-19 15:42:00,49.1,31.7,30.01,NNW,338,0.0,3.3,51,0.00,,,0.02,WUHU216HW,2013-02-19 20:42:00,
2013-02-19 15:47:00,48.9,32.0,30.01,NNW,338,4.2,4.2,52,0.00,,,0.02,WUHU216HW,2013-02-19 20:47:00,
2013-02-19 15:52:00,48.9,31.5,30.02,WNW,293,0.0,4.2,51,0.00,,,0.02,WUHU216HW,2013-02-19 20:52:00,
2013-02-19 15:57:00,48.7,30.9,30.02,NNW,338,4.0,4.6,50,0.00,,,0.02,WUHU216HW,2013-02-19 20:57:00,
2013-02-19 16:02:00,48.7,30.9,30.02,NW,315,0.8,4.6,50,0.00,,,0.02,WUHU216HW,2013-02-19 21:02:00,
2013-02-19 16:07:00,48.9,30.5,30.03,NW,315,2.9,7.6,49,0.00,,,0.02,WUHU216HW,2013-02-19 21:07:00,
2013-02-19 16:12:00,48.9,30.5,30.04,North,0,7.8,7.8,49,0.00,,,0.02,WUHU216HW,2013-02-19 21:12:00,
2013-02-19 16:17:00,48.7,29.2,30.04,North,0,0.0,7.8,47,0.00,,,0.02,WUHU216HW,2013-02-19 21:17:00,
2013-02-19 16:22:00,48.7,29.2,30.04,WNW,293,5.3,11.4,47,0.00,,,0.02,WUHU216HW,2013-02-19 21:22:00,
2013-02-19 16:27:00,48.7,29.2,30.04,NW,315,0.0,11.4,47,0.00,,,0.02,WUHU216HW,2013-02-19 21:27:00,
2013-02-19 16:32:00,48.7,29.8,30.04,WSW,248,2.9,5.3,48,0.00,,,0.02,WUHU216HW,2013-02-19 21:32:00,
2013-02-19 16:37:00,48.5,29.1,30.05,NW,315,9.1,9.1,47,0.00,,,0.02,WUHU216HW,2013-02-19 21:37:00,
2013-02-19 16:42:00,48.5,29.1,30.05,NNW,338,0.0,9.1,47,0.00,,,0.02,WUHU216HW,2013-02-19 21:42:00,
2013-02-19 16:47:00,48.0,27.3,30.05,WNW,293,4.2,10.0,43,0.00,,,0.02,WUHU216HW,2013-02-19 21:47:00,
2013-02-19 16:52:00,47.8,26.2,30.06,NW,315,0.8,10.0,43,0.00,,,0.02,WUHU216HW,2013-02-19 21:52:00,
2013-02-19 16:57:00,47.8,25.7,30.06,North,0,6.4,6.4,42,0.00,,,0.02,WUHU216HW,2013-02-19 21:57:00,
2013-02-19 17:02:00,47.3,25.2,30.06,WNW,293,2.4,6.4,42,0.00,,,0.02,WUHU216HW,2013-02-19 22:02:00,
2013-02-19 17:07:00,47.1,24.0,30.06,NNW,338,0.0,2.4,40,0.00,,,0.02,WUHU216HW,2013-02-19 22:07:00,
2013-02-19 17:13:00,46.9,23.8,30.06,NW,315,0.0,2.4,40,0.00,,,0.02,WUHU216HW,2013-02-19 22:13:00,
2013-02-19 17:18:00,46.9,23.8,30.07,WNW,293,5.8,5.8,40,0.00,,,0.02,WUHU216HW,2013-02-19 22:18:00,
2013-02-19 17:23:00,46.5,22.1,30.07,NW,315,1.5,7.3,38,0.00,,,0.02,WUHU216HW,2013-02-19 22:23:00,
2013-02-19 17:28:00,46.2,21.8,30.08,NW,315,3.3,7.3,38,0.00,,,0.02,WUHU216HW,2013-02-19 22:28:00,
2013-02-19 17:33:00,46.0,21.0,30.07,North,0,0.0,7.3,37,0.00,,,0.02,WUHU216HW,2013-02-19 22:33:00,
2013-02-19 17:38:00,45.6,21.3,30.08,West,270,7.8,7.8,38,0.00,,,0.02,WUHU216HW,2013-02-19 22:38:00,
2013-02-19 17:43:00,45.6,20.7,30.08,WNW,293,2.6,7.8,37,0.00,,,0.02,WUHU216HW,2013-02-19 22:43:00,
2013-02-19 17:48:00,45.3,20.3,30.09,West,270,0.0,7.8,37,0.00,,,0.02,WUHU216HW,2013-02-19 22:48:00,
2013-02-19 17:53:00,45.1,20.2,30.09,West,270,0.0,7.1,37,0.00,,,0.02,WUHU216HW,2013-02-19 22:53:00,
2013-02-19 17:58:00,44.9,20.0,30.09,NNW,338,4.6,4.6,37,0.00,,,0.02,WUHU216HW,2013-02-19 22:58:00,
2013-02-19 18:03:00,44.7,20.5,30.09,WNW,293,3.1,4.6,38,0.00,,,0.02,WUHU216HW,2013-02-19 23:03:00,
2013-02-19 18:08:00,44.6,20.4,30.09,North,0,0.0,3.1,38,0.00,,,0.02,WUHU216HW,2013-02-19 23:08:00,
2013-02-19 18:13:00,44.4,20.9,30.10,NNW,338,0.0,3.1,39,0.00,,,0.02,WUHU216HW,2013-02-19 23:13:00,
2013-02-19 18:18:00,44.0,20.5,30.10,NW,315,0.0,0.0,39,0.00,,,0.02,WUHU216HW,2013-02-19 23:18:00,
2013-02-19 18:23:00,43.7,20.2,30.10,NW,315,0.0,0.0,39,0.00,,,0.02,WUHU216HW,2013-02-19 23:23:00,
2013-02-19 18:28:00,43.5,20.1,30.10,NW,315,0.0,5.3,39,0.00,,,0.02,WUHU216HW,2013-02-19 23:28:00,
2013-02-19 18:33:00,43.1,19.7,30.10,North,0,0.0,5.3,39,0.00,,,0.02,WUHU216HW,2013-02-19 23:33:00,
2013-02-19 18:38:00,42.9,19.6,30.11,West,270,0.0,0.0,39,0.00,,,0.02,WUHU216HW,2013-02-19 23:38:00,
2013-02-19 18:43:00,42.6,19.2,30.11,NNW,338,0.0,1.7,39,0.00,,,0.02,WUHU216HW,2013-02-19 23:43:00,
2013-02-19 18:48:00,42.4,19.1,30.11,NNW,338,0.0,4.9,39,0.00,,,0.02,WUHU216HW,2013-02-19 23:48:00,
2013-02-19 18:53:00,42.0,18.8,30.11,West,270,0.0,4.9,39,0.00,,,0.02,WUHU216HW,2013-02-19 23:53:00,
2013-02-19 18:58:00,41.9,18.6,30.11,North,0,0.0,0.0,39,0.00,,,0.02,WUHU216HW,2013-02-19 23:58:00,
2013-02-19 19:03:00,41.7,18.4,30.12,NNW,338,0.0,0.0,39,0.00,,,0.02,WUHU216HW,2013-02-20 00:03:00,
2013-02-19 19:08:00,41.5,18.3,30.12,NNW,338,0.0,0.0,39,0.00,,,0.02,WUHU216HW,2013-02-20 00:08:00,
2013-02-19 19:13:00,41.3,18.1,30.12,NNW,338,0.0,4.4,39,0.00,,,0.02,WUHU216HW,2013-02-20 00:13:00,
2013-02-19 19:18:00,41.1,17.3,30.12,NNW,338,2.6,4.4,38,0.00,,,0.02,WUHU216HW,2013-02-20 00:18:00,
2013-02-19 19:23:00,41.1,17.3,30.12,NNW,338,0.0,3.1,38,0.00,,,0.02,WUHU216HW,2013-02-20 00:23:00,
2013-02-19 19:28:00,41.1,17.9,30.12,NW,315,0.0,0.0,39,0.00,,,0.02,WUHU216HW,2013-02-20 00:28:00,
2013-02-19 19:33:00,40.8,17.6,30.12,NNW,338,0.0,0.0,39,0.00,,,0.02,WUHU216HW,2013-02-20 00:33:00,
2013-02-19 19:38:00,40.8,17.6,30.13,North,0,0.0,0.0,39,0.00,,,0.02,WUHU216HW,2013-02-20 00:38:00,
2013-02-19 19:43:00,40.6,17.5,30.13,WNW,293,0.0,2.9,39,0.00,,,0.02,WUHU216HW,2013-02-20 00:43:00,
2013-02-19 19:48:00,40.2,17.5,30.13,NW,315,1.1,2.9,39,0.00,,,0.02,WUHU216HW,2013-02-20 00:48:00,
2013-02-19 19:53:00,40.2,17.2,30.13,WNW,293,0.0,1.1,39,0.00,,,0.02,WUHU216HW,2013-02-20 00:53:00,
2013-02-19 19:58:00,39.9,16.8,30.13,NNW,338,0.0,1.1,39,0.00,,,0.02,WUHU216HW,2013-02-20 00:58:00,
2013-02-19 20:03:00,39.9,16.8,30.13,WNW,293,0.0,0.0,39,0.00,,,0.02,WUHU216HW,2013-02-20 01:03:00,
2013-02-19 20:08:00,39.7,16.7,30.13,NW,315,6.4,6.4,39,0.00,,,0.02,WUHU216HW,2013-02-20 01:08:00,
2013-02-19 20:13:00,39.7,16.7,30.13,NNW,338,0.0,6.4,39,0.00,,,0.02,WUHU216HW,2013-02-20 01:13:00,
2013-02-19 20:18:00,39.5,16.5,30.13,NNW,338,7.3,7.3,39,0.00,,,0.02,WUHU216HW,2013-02-20 01:18:00,
2013-02-19 20:23:00,39.3,16.3,30.13,NW,315,5.1,7.3,39,0.00,,,0.02,WUHU216HW,2013-02-20 01:23:00,
2013-02-19 20:28:00,39.3,16.3,30.13,NNW,338,0.0,5.1,39,0.00,,,0.02,WUHU216HW,2013-02-20 01:28:00,
2013-02-19 20:33:00,39.0,16.0,30.14,NNW,338,0.0,1.7,39,0.00,,,0.02,WUHU216HW,2013-02-20 01:33:00,
2013-02-19 20:38:00,39.0,16.0,30.13,NW,315,0.0,0.0,39,0.00,,,0.02,WUHU216HW,2013-02-20 01:38:00,
2013-02-19 20:43:00,38.8,16.5,30.14,West,270,2.2,2.2,40,0.00,,,0.02,WUHU216HW,2013-02-20 01:43:00,
2013-02-19 20:48:00,38.8,16.5,30.14,NW,315,0.0,2.2,40,0.00,,,0.02,WUHU216HW,2013-02-20 01:48:00,
2013-02-19 20:53:00,38.6,16.3,30.14,NW,315,0.0,2.2,40,0.00,,,0.02,WUHU216HW,2013-02-20 01:53:00,
2013-02-19 20:58:00,38.4,16.2,30.14,NW,315,0.0,5.8,40,0.00,,,0.02,WUHU216HW,2013-02-20 01:58:00,
2013-02-19 21:03:00,38.3,16.0,30.14,NNW,338,0.0,5.8,40,0.00,,,0.02,WUHU216HW,2013-02-20 02:03:00,
2013-02-19 21:08:00,38.3,16.0,30.14,NW,315,0.0,7.8,40,0.00,,,0.02,WUHU216HW,2013-02-20 02:08:00,
2013-02-19 21:13:00,37.9,15.7,30.14,WNW,293,0.0,7.8,40,0.00,,,0.02,WUHU216HW,2013-02-20 02:13:00,
2013-02-19 21:18:00,37.9,15.7,30.14,NNW,338,0.0,0.0,40,0.00,,,0.02,WUHU216HW,2013-02-20 02:18:00,
2013-02-19 21:23:00,37.7,15.5,30.14,NW,315,6.9,6.9,40,0.00,,,0.02,WUHU216HW,2013-02-20 02:23:00,
2013-02-19 21:28:00,37.5,15.9,30.14,NNW,338,3.8,6.9,41,0.00,,,0.02,WUHU216HW,2013-02-20 02:28:00,
2013-02-19 21:33:00,37.2,15.6,30.15,North,0,0.0,3.8,41,0.00,,,0.02,WUHU216HW,2013-02-20 02:33:00,
2013-02-19 21:38:00,37.2,15.6,30.15,NW,315,0.0,3.8,41,0.00,,,0.02,WUHU216HW,2013-02-20 02:38:00,
2013-02-19 21:43:00,37.0,15.4,30.15,NNW,338,0.0,0.0,41,0.00,,,0.02,WUHU216HW,2013-02-20 02:43:00,
2013-02-19 21:48:00,37.0,15.4,30.14,WNW,293,0.0,0.0,41,0.00,,,0.02,WUHU216HW,2013-02-20 02:48:00,
2013-02-19 21:53:00,36.8,15.1,30.15,NNW,338,0.0,0.0,41,0.00,,,0.02,WUHU216HW,2013-02-20 02:53:00,
2013-02-19 21:58:00,36.5,15.4,30.15,North,0,6.4,6.4,42,0.00,,,0.02,WUHU216HW,2013-02-20 02:58:00,
2013-02-19 22:03:00,36.3,15.3,30.14,NNE,23,6.0,6.4,42,0.00,,,0.02,WUHU216HW,2013-02-20 03:03:00,
2013-02-19 22:08:00,36.3,15.3,30.15,NNW,338,0.0,6.4,42,0.00,,,0.02,WUHU216HW,2013-02-20 03:08:00,
2013-02-19 22:13:00,36.1,15.1,30.15,NNW,338,6.0,9.8,42,0.00,,,0.02,WUHU216HW,2013-02-20 03:13:00,
2013-02-19 22:18:00,36.1,15.6,30.15,NW,315,0.4,9.8,43,0.00,,,0.02,WUHU216HW,2013-02-20 03:18:00,
2013-02-19 22:23:00,35.9,15.5,30.15,NW,315,0.0,8.5,43,0.00,,,0.02,WUHU216HW,2013-02-20 03:23:00,
2013-02-19 22:28:00,35.7,15.3,30.15,NNW,338,0.0,8.5,43,0.00,,,0.02,WUHU216HW,2013-02-20 03:28:00,
2013-02-19 22:33:00,35.7,15.3,30.15,NW,315,0.0,0.0,43,0.00,,,0.02,WUHU216HW,2013-02-20 03:33:00,
2013-02-19 22:38:00,35.4,15.2,30.15,NNW,338,0.0,0.0,43,0.00,,,0.02,WUHU216HW,2013-02-20 03:38:00,
2013-02-19 22:43:00,35.4,15.0,30.15,NNW,338,0.0,0.0,43,0.00,,,0.02,WUHU216HW,2013-02-20 03:43:00,
2013-02-19 22:48:00,35.2,15.3,30.16,NW,315,0.0,0.0,44,0.00,,,0.02,WUHU216HW,2013-02-20 03:48:00,
2013-02-19 22:54:00,35.2,15.3,30.16,North,0,0.0,0.0,44,0.00,,,0.02,WUHU216HW,2013-02-20 03:54:00,
2013-02-19 22:59:00,34.8,15.0,30.16,NW,315,0.0,4.2,44,0.00,,,0.02,WUHU216HW,2013-02-20 03:59:00,
2013-02-19 23:04:00,34.8,15.5,30.15,NNW,338,0.0,4.2,45,0.00,,,0.02,WUHU216HW,2013-02-20 04:04:00,
2013-02-19 23:09:00,34.8,15.5,30.16,NNW,338,0.0,2.0,45,0.00,,,0.02,WUHU216HW,2013-02-20 04:09:00,
2013-02-19 23:14:00,34.7,15.3,30.16,NNW,338,4.4,4.4,45,0.00,,,0.02,WUHU216HW,2013-02-20 04:14:00,
2013-02-19 23:19:00,34.3,15.0,30.16,NNW,338,0.0,4.4,45,0.00,,,0.02,WUHU216HW,2013-02-20 04:19:00,
2013-02-19 23:24:00,34.3,15.5,30.16,SW,225,0.0,4.4,46,0.00,,,0.02,WUHU216HW,2013-02-20 04:24:00,
2013-02-19 23:29:00,34.3,15.5,30.16,NNW,338,5.3,5.3,46,0.00,,,0.02,WUHU216HW,2013-02-20 04:29:00,
2013-02-19 23:34:00,34.1,15.3,30.16,West,270,5.1,5.3,46,0.00,,,0.02,WUHU216HW,2013-02-20 04:34:00,
2013-02-19 23:39:00,33.8,15.7,30.16,NNE,23,0.0,5.8,47,0.00,,,0.02,WUHU216HW,2013-02-20 04:39:00,
2013-02-19 23:44:00,33.6,15.3,30.16,NW,315,0.0,5.8,47,0.00,,,0.02,WUHU216HW,2013-02-20 04:44:00,
2013-02-19 23:49:00,33.6,15.8,30.16,NW,315,3.3,8.0,48,0.00,,,0.02,WUHU216HW,2013-02-20 04:49:00,
2013-02-19 23:54:00,33.4,15.8,30.17,NW,315,6.4,8.0,48,0.00,,,0.02,WUHU216HW,2013-02-20 04:54:00,
2013-02-19 23:59:00,33.4,16.2,30.18,North,0,0.0,6.4,49,0.00,,,0.02,WUHU216HW,2013-02-20 04:59:00,